FALCON 9 R/B, 62719

Orbit data source: Space-Track

FALCON 9 R/B, 62719 is space debris in HEO originally from a launch on Wed, 15 Jan 2025 UTC launched from the Air Force Eastern Test Range (AFETR). Debris objects in space refer to the collection of defunct objects orbiting the Earth. Examples of debris include non-operational satellites, rocket bodies, and fragments generated from explosions, collisions, or faulty payload assembly.

Loading next visibility...
Identifier
62719, 2025-010D
Orbit
HEO
Country
Flag of USUS
Related business
Manufacturer
SpaceX
Mission
Spacecraft
Bus & Motor
F9ST2, Unknown motor
Mass
~3,000 kg wet, ~3,000 kg dry
Launch date (UTC)
2025-01-15 (8 months ago)
Launch vehicle
Unknown
Launch site
Air Force Eastern Test Range (AFETR)
Object type
Payload
Rocket body
Debris
Shape & HBR
Cyl, 7.8 m
Radar Cross Section
39.980 m²

Expand to show TLE details & history
Last TLE update: 2 months ago

TLE from 2 months ago
0 FALCON 9 R/B
1 62719U 25010D   25212.34652144 -.00015332  00000-0  00000-0 0  9999
2 62719  14.9255  34.8763 5365970  20.6003 359.8309  0.03391350    90
Epoch: 2025-07-31T08:18Z
TLE epoch observation values (Epoch: 2025-07-31T08:18:59.452Z)
Latitude
1.45485°
Longitude
-32.28017°
Altitude
202,997.332 km
Speed
1.679 km/s
True Right ascension
02h 46m 43s
True Declination
1° 27' 16"
Sunlit
Object was in daylight at epoch
Visualization orbit readout
Latitude
Unknown
Longitude
Unknown
Altitude
Unknown
Speed
Unknown
Apparent Right ascension
Unknown
Apparent Declination
Unknown
Sunlit
N/A
Visualization observer readout
Local Sidereal Time
13:29:59
Azimuth
Unknown
Elevation
Unknown
Doppler factor
Unknown
Orbital elements
Apogee altitude
613,130.249 km
Perigee altitude
180,451.62 km
Semi-major axis
403,169.072 km
Eccentricity
0.5366
Inclination
14.9255°
RAAN
34.8763°
Arg. of periapsis
20.6003°
True anomaly
359.33553°
Mean anomaly
359.8309°
Eccentric anomaly
359.63509°
Mean motion
0.00848 °/min
Orbital period
42,460.99 mins
BSTAR
0
Loading maneuver chart data...
Computing Atmospheric mass density...
Loading historical data...
Loading historical data...
Loading historical data...
Loading historical data...
Loading historical data...
Loading historical data...
Loading historical data...
Other satellites on launch #10 in the year 2025 (2025-01-15 UTC)

Documentation

Showing up to 5 results
|